Volver al catálogo

FENGYUN 1C DEB

ActivoSSO
NORAD 30297·DEBRIS·🇨🇳 China

Lanzado May 10, 1999 desde Taiyuan Satellite Launch Center

Loading…

Próximos Pases (próximas 24 horas)

TLE

ActualizadoSource: Space-Track

Época: Sep 14, 2026, 08:29 UTC

1 30297U 99025ZJ  26257.35353324  .00009024  00000-0  18488-2 0  9992
2 30297  98.8335 216.0579 0361968  35.9445 114.5073 14.27010076990773

Sigue FENGYUN 1C DEB en tiempo real con AllMySat

Download on the App Store